Effective Sunday, March 17, 2024, the National Weather Service National Data Buoy Center will discontinue its Dial-A-Buoy Interactive Voice Response system. For more information, see Service Change Notice 24-06 (PDF).

Station NWHC3 - 8465705 - New Haven, CT Image indicating link to RSS feed of recent meteorological observations for station NWHC3


Conditions at NWHC3 as of
(7:00 am EST)
1200 GMT on 02/25/2024:
     

Click on the graph icon in the table below to see a time series plot of the last five days of that observation.

5-day plot - Wind Direction Wind Direction (WDIR): N ( 10 deg true )
5-day plot - Wind Speed Wind Speed (WSPD): 7.0 kts
5-day plot - Wind Gust Wind Gust (GST): 8.9 kts
5-day plot - Atmospheric Pressure Atmospheric Pressure (PRES):30.17 in
5-day plot - Pressure Tendency Pressure Tendency (PTDY):+0.07 in ( Rising )
5-day plot - Air Temperature Air Temperature (ATMP): 20.3 °F
5-day plot - Water Temperature Water Temperature (WTMP): 37.8 °F
5-day plot - Ice Accretion Ice Accretion (ICE): 0.08 in per hour
5-day plot - Wind Chill Wind Chill (CHILL): 10.6 °F
5-day plot - Wind Speed at 10 Meters Wind Speed at 10 meters (WSPD10M): 7.8 kts
5-day plot - Wind Speed at 20 Meters Wind Speed at 20 meters (WSPD20M): 7.8 kts
5-day plot -  Wind Speed, Wind Gust and Atmospheric Pressure Combined plot of Wind Speed, Gust, and Air Pressure
NOS Water Level Observation Network Water Level
Previous observations
TIME
(EST)
5-day plot - Wind Direction
WDIR
 
5-day plot - Wind Speed
WSPD
kts
5-day plot - Wind Gust
GST
kts
5-day plot - Wave Height
WVHT
ft
5-day plot - Dominant Wave Period
DPD
sec
5-day plot - Average Wave Period
APD
sec
5-day plot - Mean Wave Direction
MWD
 
5-day plot - Atmospheric Pressure
PRES
in
5-day plot - Pressure Tendency
PTDY
in
5-day plot - Air Temperature
ATMP
°F
5-day plot - Water Temperature
WTMP
°F
5-day plot - Dew Point
DEWP
°F
5-day plot - Salinity
SAL
psu
5-day plot - Visibility
VIS
nmi
5-day plot - Tide (above MLLW)
TIDE
ft
2024-02-25 06:54 amNNE 6.0 9.9----30.17- 20.3 37.8----
2024-02-25 06:48 am N 7.0 9.9----30.17- 20.3 37.8----
2024-02-25 06:42 amNNE 8.0 9.9----30.17- 20.3 37.8----
2024-02-25 06:36 am N 8.9 12.0----30.16- 20.5 37.8----
2024-02-25 06:30 am N 8.0 11.1----30.16-- 37.8----
2024-02-25 06:24 amNNE 7.0 9.9----30.16-- 37.8----
2024-02-25 06:18 amNNE 6.0 9.9------------
2024-02-25 06:12 am N 6.0 11.1------------
2024-02-25 06:06 am N 6.0 9.9------------
2024-02-25 06:00 amNNE 8.0 8.9------------
2024-02-25 05:54 am N 8.0 13.0------------
2024-02-25 05:48 am N 9.9 13.0----30.14- 21.0 37.9----
2024-02-25 05:42 am N 11.1 13.0----30.14- 20.8 37.9----
2024-02-25 05:36 am N 11.1 12.0----30.14- 21.6 37.9----
2024-02-25 05:30 am N 11.1 13.0----30.14- 21.6 37.9----
2024-02-25 05:24 am N 8.9 12.0----30.14- 21.6 37.8----
2024-02-25 05:18 am N 9.9 12.0----30.14- 21.4 37.8----
2024-02-25 05:12 am N 9.9 13.0----30.13- 21.4 37.8----
2024-02-25 05:06 am N 11.1 14.0----30.13- 21.6 37.9----
2024-02-25 05:00 am N 11.1 13.0----30.12+0.07 21.4 37.9----
2024-02-25 04:54 am N 11.1 13.0----30.12- 21.7 38.1----
2024-02-25 04:48 am N 12.0 17.1----30.11- 21.4-----
2024-02-25 04:42 am N 13.0 15.0----30.11- 21.4-----
2024-02-25 04:36 am N 13.0 15.0----30.11- 21.6-----
2024-02-25 04:30 am N 12.0 17.1----30.11- 21.9 38.5----
2024-02-25 04:24 am N 13.0 17.1----30.10- 21.7 38.7----
2024-02-25 04:18 am N 13.0 17.1----30.10- 21.9 38.8----
2024-02-25 04:12 am N 12.0 15.0----30.10- 21.9 39.0----
2024-02-25 04:06 am N 13.0 15.0----30.10- 22.1 38.8----
2024-02-25 04:00 am N 12.0 15.9----30.10+0.06- 39.0----
2024-02-25 03:54 am N 13.0 15.0----30.09-- 39.0----
2024-02-25 03:48 am N 13.0 15.0----30.10- 22.3 39.0----
2024-02-25 03:42 am N 13.0 15.0----30.09- 22.3 39.0----
2024-02-25 03:36 am N 13.0 15.0----30.09- 22.5 38.8----
2024-02-25 03:30 am N 13.0 15.0----30.09- 22.5 38.8----
2024-02-25 03:24 am N 13.0 15.0----30.09- 22.6 38.8----
2024-02-25 03:18 am N 12.0 14.0----30.08- 22.8 38.8----
2024-02-25 03:12 am N 12.0 15.9----30.08- 22.8 38.8----
2024-02-25 03:06 am N 13.0 15.0----30.08- 22.6 38.8----
2024-02-25 03:00 am N 13.0 15.0----30.08+0.06 23.0 38.8----
2024-02-25 02:54 am N 12.0 14.0----30.07- 23.2 38.8----
2024-02-25 02:48 am N 11.1 13.0----30.07- 23.2 38.8----
2024-02-25 02:42 am N 12.0 14.0----30.07- 23.5 39.0----
2024-02-25 02:36 am N 12.0 17.1----30.07- 23.5 39.0----
2024-02-25 02:30 am N 15.0 17.1----30.06- 23.4 38.8----
2024-02-25 02:24 am N 12.0 15.0----30.06- 23.7 38.8----
2024-02-25 02:18 am N 12.0 15.0----30.06- 23.7 38.8----
2024-02-25 02:12 am N 11.1 18.1----30.06- 23.9 38.8----
2024-02-25 02:06 am N 12.0 15.0----30.06- 23.9 38.8----
2024-02-25 02:00 amNNW 13.0 15.0----30.06+0.06 23.9 38.8----
2024-02-25 01:54 amNNW 13.0 15.0----30.05- 24.1 38.8----
2024-02-25 01:48 am N 13.0 17.1----30.05- 24.4 39.0----
2024-02-25 01:42 am N 15.0 18.1----30.05- 24.3 39.0----
2024-02-25 01:36 am N 13.0 17.1----30.05- 24.3 39.0----
2024-02-25 01:30 am N 14.0 15.9----30.04- 24.6 39.0----
2024-02-25 01:24 am N 12.0 15.0----30.04- 24.4 39.0----
2024-02-25 01:18 am N 12.0 15.0----30.04- 24.6 39.0----
2024-02-25 01:12 am N 12.0 15.9----30.04- 24.8 39.0----
2024-02-25 01:06 am N 13.0 15.0----30.03- 24.8 39.0----
2024-02-25 01:00 am N 13.0 17.1----30.03+0.06 25.0-----
2024-02-25 12:54 am N 13.0 15.0----30.03- 25.0-----
2024-02-25 12:48 am N 12.0 17.1----30.03- 25.3 39.0----
2024-02-25 12:42 am N 14.0 15.9----30.02- 25.3 39.0----
2024-02-25 12:36 am N 13.0 17.1----30.02- 25.5 39.0----
2024-02-25 12:30 am N 15.0 19.0----30.02- 25.3 38.8----
2024-02-25 12:24 am N 14.0 19.0----30.02- 25.7 38.8----
2024-02-25 12:18 am N 13.0 17.1----30.02- 26.1 38.8----
2024-02-25 12:12 am N 15.0 19.0----30.02- 25.9 38.8----
2024-02-25 12:06 am N 15.0 19.0----30.01- 25.7 39.0----
2024-02-25 12:00 am N 13.0 18.1----30.01+0.07 26.4 38.8----
2024-02-24 11:54 pm N 15.9 21.0----30.01- 26.1 38.8----
2024-02-24 11:48 pm N 15.9 18.1----30.01-- 39.0----
2024-02-24 11:42 pm N 14.0 15.9----30.01-- 38.8----
2024-02-24 11:36 pm N 14.0 15.9----30.01-- 38.8----
2024-02-24 11:30 pm N 14.0 17.1----30.01- 26.4 38.8----
2024-02-24 11:24 pm N 14.0 18.1----30.01- 26.6 38.8----
2024-02-24 11:18 pm N 15.0 18.1----30.00- 26.4 38.8----
2024-02-24 11:12 pm N 14.0 18.1----30.00- 27.1 38.8----
2024-02-24 11:06 pm N 13.0 19.0----30.00- 27.1 38.8----
2024-02-24 11:00 pm N 13.0 18.1----29.99+0.09 27.5 38.8----
2024-02-24 10:54 pm N 15.0 19.0----29.99- 27.5 38.8----
2024-02-24 10:48 pm N 14.0 18.1----29.99- 27.7 38.8----
2024-02-24 10:42 pm N 12.0 15.9----29.99- 28.0 38.8----
2024-02-24 10:36 pm N 9.9 14.0----29.99- 28.0 38.8----
2024-02-24 10:30 pm N 12.0 15.9----29.99- 28.2 38.7----
2024-02-24 10:24 pm N 12.0 14.0----29.98- 28.0 38.7----
2024-02-24 10:18 pm N 13.0 17.1------ 28.2-----
2024-02-24 10:12 pm N 12.0 14.0------ 28.8-----
2024-02-24 10:06 pm N 11.1 15.9------ 28.9-----
2024-02-24 10:00 pm N 14.0 17.1----29.97+0.09 28.6 38.8----
2024-02-24 09:54 pm N 13.0 17.1----29.96- 28.9 38.8----
2024-02-24 09:48 pm N 15.9 19.0----29.96- 29.1 38.8----
2024-02-24 09:42 pm N 12.0 18.1----29.96- 29.3 38.8----
2024-02-24 09:36 pm N 15.0 19.0----29.96- 29.5 38.8----
2024-02-24 09:30 pm N 13.0 17.1----29.96- 29.7 38.7----
2024-02-24 09:24 pm N 12.0 15.9----29.95- 30.2 38.7----
2024-02-24 09:18 pm N 12.0 17.1----29.95-- 38.7----
2024-02-24 09:12 pm N 12.0 15.0----29.95-- 38.7----
2024-02-24 09:06 pm N 11.1 14.0----29.95-- 38.8----
2024-02-24 09:00 pm-------29.94+0.11- 38.8----
2024-02-24 08:54 pm-------29.94-- 38.7----
2024-02-24 08:48 pm N 9.9 14.0----29.93-- 38.7----
2024-02-24 08:42 pm N 13.0 18.1----29.93-- 38.7----
2024-02-24 08:36 pmNNE 14.0 17.1----29.93-- 38.7----
2024-02-24 08:30 pmNNE 14.0 20.0----29.93- 30.9 38.8----
2024-02-24 08:24 pmNNE 15.9 19.0----29.92- 30.9 38.8----
2024-02-24 08:18 pm N 14.0 20.0----29.92- 31.3 38.8----
2024-02-24 08:12 pm N 15.0 21.0----29.91- 31.1 39.0----
2024-02-24 08:06 pm N 14.0 19.0----29.91- 31.3 39.0----
2024-02-24 08:00 pm N 13.0 15.9----29.91+0.12- 39.0----
2024-02-24 07:54 pm N 14.0 19.0----29.90-- 39.0----
2024-02-24 07:48 pm N 15.9 21.0----29.90-- 39.0----
2024-02-24 07:42 pm N 17.1 20.0----29.89-- 39.0----
2024-02-24 07:36 pm N 12.0 15.0----29.89-- 39.0----
2024-02-24 07:30 pm N 13.0 18.1----29.89-- 39.0----
2024-02-24 07:24 pm N 13.0 18.1----29.89-- 39.0----
2024-02-24 07:18 pm N 13.0 17.1----29.88- 32.5-----
2024-02-24 07:12 pmNNE 11.1 12.0----29.88- 32.7-----
2024-02-24 07:06 pm N 12.0 15.9----29.88- 32.7-----
2024-02-24 07:00 pm N 11.1 15.9----29.87+0.13 33.1-----
2024-02-24 06:54 pm N 12.0 17.1----29.87- 32.9-----
2024-02-24 06:48 pm N 8.9 13.0----29.86- 33.3 38.8----
2024-02-24 06:42 pm N 13.0 15.0----29.86- 33.4 38.8----
2024-02-24 06:36 pm N 12.0 15.0----29.86- 33.4 39.0----
2024-02-24 06:30 pm N 11.1 15.0----29.85-- 39.0----
2024-02-24 06:24 pm N 9.9 14.0----29.85-- 39.0----
2024-02-24 06:00 pm N 11.1 14.0----29.84+0.13 34.3 39.4----
2024-02-24 05:54 pm N 11.1 14.0----29.83- 34.7 39.4----
2024-02-24 05:48 pm N 13.0 15.0----29.82- 34.5 39.2----
2024-02-24 05:42 pm N 14.0 18.1----29.82- 34.3 39.4----
2024-02-24 05:36 pm N 14.0 19.0----29.81- 34.7 39.4----
2024-02-24 05:30 pm N 13.0 19.0----29.81- 34.9 39.4----
2024-02-24 05:24 pm N 15.9 19.0----29.80- 35.1 39.4----
2024-02-24 05:18 pm N 14.0 18.1----29.80-- 39.6----
2024-02-24 05:12 pmNNW 14.0 20.0----29.79-- 39.6----
2024-02-24 05:06 pm N 15.0 20.0----29.78-- 39.6----
2024-02-24 05:00 pmNNW 18.1 21.0----29.78+0.09------
2024-02-24 04:54 pm N 13.0 20.0----29.78-------
2024-02-24 04:48 pmNNW 15.9 21.0----29.77- 35.6-----
2024-02-24 04:42 pmNNW 15.0 19.0----29.77- 35.8-----
2024-02-24 04:36 pmNNW 13.0 17.1----29.76- 35.8-----
2024-02-24 04:30 pm N 15.9 18.1----29.76- 36.0 39.6----
2024-02-24 04:24 pmNNW 14.0 19.0----29.76- 36.0 39.4----
2024-02-24 04:18 pm N 15.0 18.1----29.75- 36.0 39.4----
2024-02-24 04:12 pm N 15.0 21.0----29.75- 36.3 39.4----
2024-02-24 04:06 pmNNW 18.1 21.0----29.74- 36.3 39.4----
2024-02-24 04:00 pm-------29.74+0.06 36.5 39.2----
2024-02-24 03:54 pm-------29.74- 36.5 39.0----
2024-02-24 03:48 pmNNW 15.0 18.1----29.73-- 39.0----
2024-02-24 03:42 pm N 15.0 19.0----29.73-- 39.0----
2024-02-24 03:36 pmNNE 12.0 19.0----29.73-- 39.0----
2024-02-24 03:30 pm N 15.0 20.0------ 36.9 39.0----
2024-02-24 03:24 pmNNE 15.9 21.0------ 36.9 39.2----
2024-02-24 03:18 pm-------29.72- 37.0 39.2----
2024-02-24 03:12 pm-------29.72- 37.2 39.2----
2024-02-24 03:06 pm-------29.72- 37.0 39.2----
2024-02-24 03:00 pmNNE 18.1 22.0----29.71+0.04 37.0 39.2----
2024-02-24 02:54 pm N 15.9 19.0----29.71- 37.0 39.2----
2024-02-24 02:48 pm N 14.0 22.0----29.71- 37.6 39.2----
2024-02-24 02:42 pm N 12.0 18.1----29.71- 37.6 39.2----
2024-02-24 02:36 pmNNW 14.0 19.0----29.70- 37.4 39.2----
2024-02-24 02:30 pmNNW 18.1 22.0----29.70- 37.0-----
2024-02-24 02:24 pm NW 15.9 21.0----29.70- 36.7-----
2024-02-24 02:18 pm NW 15.9 22.9----29.70- 36.7 39.0----
2024-02-24 02:12 pm NW 15.0 21.0----29.69- 36.5 39.0----
2024-02-24 02:06 pmNNW 15.0 19.0----29.69- 37.0 39.0----
2024-02-24 02:00 pm NW 15.9 21.0----29.69+0.03- 38.8----
2024-02-24 01:54 pm NW 18.1 21.0----29.68-- 38.8----
2024-02-24 01:48 pmNNW 15.9 20.0----29.68- 37.0 38.8----
2024-02-24 01:42 pmNNW 13.0 22.0----29.68- 37.6 38.8----
2024-02-24 01:36 pm NW 14.0 22.0----29.68- 37.2 38.8----
2024-02-24 01:30 pmNNW 17.1 20.0----29.67- 37.4 38.8----
2024-02-24 01:24 pm N 14.0 19.0----29.68- 37.8 38.8----
2024-02-24 01:18 pm N 13.0 17.1----29.68- 37.8 39.0----
2024-02-24 01:12 pm N 14.0 18.1----29.68- 37.8 39.0----
2024-02-24 01:06 pmNNE 12.0 15.9----29.67- 37.4 39.0----
2024-02-24 01:00 pm N 11.1 17.1----29.67-- 39.0----
2024-02-24 12:54 pm N 12.0 15.0----29.67-- 39.0----
2024-02-24 12:48 pm N 9.9 14.0----29.67-- 39.0----
2024-02-24 12:42 pm N 9.9 15.9----29.67-- 39.0----
2024-02-24 12:36 pm N 13.0 18.1----29.67-- 38.8----
2024-02-24 12:30 pmNNE 14.0 17.1----29.67- 36.7 38.8----
2024-02-24 12:24 pm N 9.9 17.1----29.67- 36.9 38.8----
2024-02-24 12:18 pmNNW 12.0 15.9----29.67- 36.9 38.8----
2024-02-24 12:12 pm N 14.0 17.1----29.67- 36.7 38.8----
2024-02-24 12:06 pmNNE 12.0 17.1----29.67- 36.7 38.8----
2024-02-24 12:00 pmNNE 12.0 15.9----29.67+0.07 36.7 38.8----
2024-02-24 11:54 am N 13.0 18.1----29.67- 36.7 38.8----
2024-02-24 11:48 amNNE 17.1 20.0----29.67-- 38.8----
2024-02-24 11:42 am N 15.9 19.0----29.66-- 38.8----
2024-02-24 11:36 amNNW 13.0 19.0----29.66-- 38.8----
2024-02-24 11:30 amNNW 14.0 18.1----29.66-- 38.8----
2024-02-24 11:24 amNNW 15.0 20.0----29.66-- 38.8----
2024-02-24 11:18 am N 17.1 19.0------ 37.8 38.8----
2024-02-24 11:12 am N 11.1 14.0------ 37.2 38.8----
2024-02-24 11:06 amNNE 12.0 15.9------ 37.2 38.8----
2024-02-24 11:00 amNNE 11.1 14.0----29.66-- 38.8----
2024-02-24 10:54 amNNE 9.9 15.0----29.66-- 38.8----
2024-02-24 10:48 amNNE 14.0 19.0----29.66-- 38.8----
2024-02-24 10:42 am N 15.9 19.0----29.65-- 38.8----
2024-02-24 10:36 am N 14.0 21.0----29.66-- 38.7----
2024-02-24 10:30 am N 13.0 18.1----29.65- 37.2 38.7----
2024-02-24 10:24 amNNE 15.9 19.0----29.65- 37.2 38.7----
2024-02-24 10:18 amNNE 14.0 21.0----29.64- 37.4 38.7----
2024-02-24 10:12 amNNE 15.9 21.0----29.63- 37.6 38.7----
2024-02-24 10:06 amNNE 17.1 21.0----29.63- 37.6 38.7----
2024-02-24 10:00 amNNE 13.0 19.0------------
2024-02-24 09:54 am N 15.0 19.0------------
2024-02-24 09:48 am N 17.1 22.0----29.62-- 38.7----
2024-02-24 09:42 amNNE 17.1 22.0----29.62-- 38.7----
2024-02-24 09:36 amNNE 14.0 21.0----29.62-- 38.7----
2024-02-24 09:30 am N 17.1 20.0----29.62- 38.5 38.7----
2024-02-24 09:24 amNNE 14.0 20.0----29.62- 38.3 38.7----
2024-02-24 09:18 amNNE 17.1 20.0----29.61- 37.9 38.7----
2024-02-24 09:12 amNNE 15.9 21.0----29.61- 37.8 38.5----
2024-02-24 09:06 amNNE 15.9 19.0----29.61- 37.9 38.5----
2024-02-24 09:00 am N 18.1 22.0----29.60+0.08 38.1 38.5----
2024-02-24 08:54 amNNE 15.9 19.0----29.61- 38.3 38.5----
2024-02-24 08:48 amNNE 15.9 18.1------- 38.7----
2024-02-24 08:42 am N 17.1 19.0------- 38.7----
2024-02-24 08:36 am N 15.9 21.0------- 38.7----
2024-02-24 08:30 am N 17.1 22.9----29.61-------
2024-02-24 08:24 am N 17.1 25.1----29.60-------
2024-02-24 08:18 am N 18.1 22.9----29.60-------
2024-02-24 08:12 am N 18.1 22.0----29.59-------
2024-02-24 08:06 am N 17.1 22.0----29.59-------
2024-02-24 08:00 am--------- 39.4 38.7----
2024-02-24 07:54 am--------- 39.2 38.7----
2024-02-24 07:48 amNNE 15.0 20.0----29.58- 39.4 38.7----
2024-02-24 07:42 am N 12.0 18.1----29.57- 39.4 38.7----
2024-02-24 07:36 amNNE 14.0 18.1----29.57- 39.2 38.7----
2024-02-24 07:30 amNNE 14.0 19.0----29.57-------
2024-02-24 07:24 amNNE 15.0 22.0----29.57-------
2024-02-24 07:18 am N 14.0 18.1----29.57-- 38.7----
2024-02-24 07:12 amNNE 15.0 20.0----29.56-- 38.7----
2024-02-24 07:06 am N 15.0 18.1----29.56-- 38.8----
2024-02-24 07:00 am N 13.0 18.1----29.56+0.07 39.4 38.8----
2024-02-24 06:54 am N 13.0 18.1----29.55- 39.4 38.8----